Time,TemperatureF,DewpointF,PressureIn,WindDirection,WindDirectionDegrees,WindSpeedMPH,WindSpeedGustMPH,Humidity,HourlyPrecipIn,Conditions,Clouds,dailyrainin,SoftwareType,DateUTC
2013-09-29 10:13:00,63.0,32.0,30.09,ENE,57,0.0,4.0,31,0.00,,,0.00,,2013-09-29 16:13:00,
2013-09-29 10:24:00,65.0,33.0,30.09,ENE,57,0.0,3.0,30,0.00,,,0.00,,2013-09-29 16:24:00,
2013-09-29 10:44:00,66.0,32.0,30.09,ENE,57,0.0,3.0,28,0.00,,,0.00,,2013-09-29 16:44:00,
2013-09-29 10:54:00,67.0,33.0,30.09,ENE,59,1.0,4.0,28,0.00,,,0.00,,2013-09-29 16:54:00,
2013-09-29 11:12:00,67.0,32.0,30.08,ENE,59,0.0,3.0,27,0.00,,,0.00,,2013-09-29 17:12:00,
2013-09-29 11:24:00,68.0,31.0,30.08,ENE,59,1.0,4.0,25,0.00,,,0.00,,2013-09-29 17:24:00,
2013-09-29 11:43:00,67.0,27.0,30.08,ENE,59,2.0,5.0,22,0.00,,,0.00,,2013-09-29 17:43:00,
2013-09-29 11:52:00,69.0,30.0,30.08,NE,48,3.0,6.0,23,0.00,,,0.00,,2013-09-29 17:52:00,
2013-09-29 12:13:00,70.0,30.0,30.07,NNW,329,4.0,7.0,23,0.00,,,0.00,,2013-09-29 18:13:00,
2013-09-29 12:22:00,70.0,30.0,30.06,NW,306,2.0,7.0,23,0.00,,,0.00,,2013-09-29 18:22:00,
2013-09-29 12:42:00,71.0,32.0,30.05,NW,319,5.0,8.0,24,0.00,,,0.00,,2013-09-29 18:42:00,
2013-09-29 12:52:00,72.0,32.0,30.05,West,274,5.0,9.0,23,0.00,,,0.00,,2013-09-29 18:52:00,
2013-09-29 13:11:00,71.0,31.0,30.04,NW,304,4.0,13.0,23,0.00,,,0.00,,2013-09-29 19:11:00,
2013-09-29 13:22:00,71.0,30.0,30.03,WNW,293,9.0,13.0,22,0.00,,,0.00,,2013-09-29 19:22:00,
2013-09-29 13:42:00,72.0,31.0,30.02,WNW,295,7.0,11.0,22,0.00,,,0.00,,2013-09-29 19:42:00,
2013-09-29 13:52:00,72.0,32.0,30.01,NNW,328,6.0,14.0,23,0.00,,,0.00,,2013-09-29 19:52:00,
2013-09-29 14:12:00,73.0,32.0,30.00,NW,308,7.0,15.0,22,0.00,,,0.00,,2013-09-29 20:12:00,
2013-09-29 14:22:00,74.0,30.0,29.99,WNW,300,6.0,14.0,20,0.00,,,0.00,,2013-09-29 20:22:00,
2013-09-29 14:43:00,73.0,31.0,29.98,West,277,8.0,11.0,21,0.00,,,0.00,,2013-09-29 20:43:00,
2013-09-29 14:52:00,74.0,33.0,29.97,WNW,286,7.0,13.0,22,0.00,,,0.00,,2013-09-29 20:52:00,
2013-09-29 15:11:00,74.0,30.0,29.97,West,279,9.0,17.0,20,0.00,,,0.00,,2013-09-29 21:11:00,
2013-09-29 15:21:00,74.0,32.0,29.96,West,277,4.0,10.0,21,0.00,,,0.00,,2013-09-29 21:21:00,
2013-09-29 15:44:00,75.0,31.0,29.96,NW,320,11.0,15.0,20,0.00,,,0.00,,2013-09-29 21:44:00,
2013-09-29 15:55:00,75.0,30.0,29.95,NW,325,2.0,12.0,19,0.00,,,0.00,,2013-09-29 21:55:00,
2013-09-29 16:14:00,77.0,33.0,29.94,WNW,287,2.0,10.0,20,0.00,,,0.00,,2013-09-29 22:14:00,
2013-09-29 16:24:00,78.0,31.0,29.94,NNW,338,2.0,8.0,18,0.00,,,0.00,,2013-09-29 22:24:00,
2013-09-29 16:53:00,76.0,32.0,29.93,NW,321,3.0,11.0,20,0.00,,,0.00,,2013-09-29 22:53:00,
2013-09-29 17:12:00,77.0,32.0,29.92,NW,320,5.0,10.0,19,0.00,,,0.00,,2013-09-29 23:12:00,
2013-09-29 17:23:00,77.0,33.0,29.92,West,274,6.0,9.0,20,0.00,,,0.00,,2013-09-29 23:23:00,
2013-09-29 17:43:00,78.0,32.0,29.91,West,268,4.0,9.0,19,0.00,,,0.00,,2013-09-29 23:43:00,
2013-09-29 17:53:00,78.0,31.0,29.91,NW,322,6.0,10.0,18,0.00,,,0.00,,2013-09-29 23:53:00,
2013-09-29 18:11:00,78.0,31.0,29.91,NNW,329,2.0,8.0,18,0.00,,,0.00,,2013-09-30 00:11:00,
2013-09-29 18:22:00,77.0,32.0,29.91,NW,325,4.0,8.0,19,0.00,,,0.00,,2013-09-30 00:22:00,
2013-09-29 18:42:00,76.0,31.0,29.91,NW,317,5.0,7.0,19,0.00,,,0.00,,2013-09-30 00:42:00,
2013-09-29 18:52:00,76.0,31.0,29.91,NW,317,3.0,5.0,19,0.00,,,0.00,,2013-09-30 00:52:00,
2013-09-29 19:11:00,75.0,31.0,29.91,NW,317,3.0,5.0,20,0.00,,,0.00,,2013-09-30 01:11:00,
2013-09-29 19:22:00,74.0,30.0,29.90,NW,317,3.0,5.0,20,0.00,,,0.00,,2013-09-30 01:22:00,
2013-09-29 19:42:00,73.0,32.0,29.91,NW,317,2.0,4.0,22,0.00,,,0.00,,2013-09-30 01:42:00,
2013-09-29 19:52:00,73.0,31.0,29.91,NW,317,2.0,5.0,21,0.00,,,0.00,,2013-09-30 01:52:00,
2013-09-29 20:12:00,73.0,31.0,29.91,NW,317,3.0,6.0,21,0.00,,,0.00,,2013-09-30 02:12:00,
2013-09-29 20:22:00,72.0,32.0,29.91,NW,317,3.0,6.0,23,0.00,,,0.00,,2013-09-30 02:22:00,
2013-09-29 20:42:00,72.0,32.0,29.91,NW,317,5.0,6.0,23,0.00,,,0.00,,2013-09-30 02:42:00,